SIA227 WSSS-YMML

Flight info

Callsign SIA227
Flight time N/A
Altitude 35000
Route ANITO7E ANITO B470 PKP L895 SAPDA A585 GUKON/N0491F370 A585 AD V255 BENDO Y12 ARBEY
Aircraft B77W/H-SDE1E2E3FGHIJ2J3J4J5M1RWXY/LB1D1

Departure

Time 2026-05-04 00:24
Airport Singapore Changi Airport (WSSS)

Arrival

Time N/A
Airport Melbourne Airport (YMML)
Time Latitude Longitude Altitude Speed Heading
2026-05-04 00:02 1.35155 103.98344 39 ft 0 kts 112°
2026-05-04 00:11 1.35158 103.98338 38 ft 2 kts 112°
2026-05-04 00:11 1.35166 103.98318 36 ft 4 kts 112°
2026-05-04 00:11 1.35180 103.98285 32 ft 6 kts 118°
2026-05-04 00:11 1.35197 103.98266 31 ft 1 kts 166°
2026-05-04 00:12 1.35199 103.98266 31 ft 0 kts 170°
2026-05-04 00:12 1.35201 103.98266 31 ft 1 kts 172°
2026-05-04 00:12 1.35215 103.98266 31 ft 2 kts 204°
2026-05-04 00:13 1.35227 103.98274 30 ft 2 kts 220°
2026-05-04 00:13 1.35239 103.98283 31 ft 2 kts 217°
2026-05-04 00:13 1.35248 103.98289 31 ft 1 kts 214°
2026-05-04 00:13 1.35256 103.98295 31 ft 0 kts 205°
2026-05-04 00:14 1.35257 103.98295 31 ft 0 kts 205°
2026-05-04 00:18 1.35247 103.98290 31 ft 3 kts 205°
2026-05-04 00:18 1.35223 103.98279 31 ft 4 kts 205°
2026-05-04 00:19 1.35194 103.98265 31 ft 3 kts 205°
2026-05-04 00:19 1.35173 103.98256 31 ft 2 kts 205°
2026-05-04 00:19 1.35149 103.98240 31 ft 5 kts 225°
2026-05-04 00:19 1.35120 103.98195 30 ft 8 kts 242°
2026-05-04 00:20 1.35095 103.98146 31 ft 6 kts 242°
2026-05-04 00:20 1.35079 103.98128 33 ft 2 kts 222°
2026-05-04 00:20 1.35068 103.98119 34 ft 2 kts 212°
2026-05-04 00:20 1.35031 103.98099 36 ft 9 kts 209°
2026-05-04 00:21 1.34947 103.98061 40 ft 16 kts 203°
2026-05-04 00:21 1.34859 103.98025 41 ft 6 kts 204°
2026-05-04 00:21 1.34830 103.97998 41 ft 5 kts 242°
2026-05-04 00:21 1.34826 103.97962 41 ft 5 kts 289°
2026-05-04 00:22 1.34839 103.97925 40 ft 6 kts 290°
2026-05-04 00:22 1.34855 103.97884 40 ft 6 kts 292°
2026-05-04 00:22 1.34873 103.97841 40 ft 7 kts 292°
2026-05-04 00:22 1.34898 103.97782 39 ft 9 kts 304°
2026-05-04 00:23 1.34942 103.97768 40 ft 5 kts
2026-05-04 00:23 1.34965 103.97774 41 ft 0 kts 24°
2026-05-04 00:23 1.34967 103.97774 41 ft 1 kts 24°
2026-05-04 00:24 1.35103 103.97833 42 ft 59 kts 22°
2026-05-04 00:24 1.35759 103.98109 39 ft 143 kts 23°
2026-05-04 00:24 1.36911 103.98595 185 ft 203 kts 22°
2026-05-04 00:24 1.38279 103.99215 960 ft 227 kts 26°
2026-05-04 00:25 1.39620 103.99858 2522 ft 218 kts 23°
2026-05-04 00:25 1.40924 104.00414 4006 ft 208 kts 24°
2026-05-04 00:25 1.42378 104.01061 4452 ft 252 kts 25°
2026-05-04 00:25 1.44015 104.01776 5633 ft 264 kts 22°
2026-05-04 00:26 1.45724 104.02442 6943 ft 266 kts 21°
2026-05-04 00:26 1.47307 104.03432 7210 ft 278 kts 47°
2026-05-04 00:26 1.48283 104.05062 7307 ft 280 kts 73°
2026-05-04 00:26 1.48475 104.06995 7409 ft 283 kts 95°
2026-05-04 00:27 1.48009 104.08906 7026 ft 292 kts 112°
2026-05-04 00:27 1.47107 104.10677 6824 ft 290 kts 117°
2026-05-04 00:27 1.46208 104.12418 6944 ft 282 kts 117°
2026-05-04 00:27 1.45290 104.14142 7474 ft 281 kts 115°
2026-05-04 00:28 1.44404 104.15915 7477 ft 294 kts 115°
2026-05-04 00:28 1.43507 104.17786 8055 ft 295 kts 114°
2026-05-04 00:28 1.42656 104.19605 8877 ft 288 kts 114°
2026-05-04 00:28 1.41820 104.21409 9427 ft 291 kts 113°
2026-05-04 00:29 1.40813 104.23188 9934 ft 295 kts 130°
2026-05-04 00:29 1.39199 104.24472 10291 ft 306 kts 150°
2026-05-04 00:29 1.37224 104.25451 10524 ft 323 kts 153°
2026-05-04 00:29 1.35153 104.26424 10786 ft 338 kts 154°
2026-05-04 00:30 1.32950 104.27453 11074 ft 353 kts 154°
2026-05-04 00:30 1.30692 104.28507 11382 ft 367 kts 154°
2026-05-04 00:30 1.28303 104.29623 11701 ft 381 kts 154°
2026-05-04 00:30 1.25865 104.30761 12084 ft 392 kts 154°
2026-05-04 00:31 1.23371 104.31925 12682 ft 397 kts 154°
2026-05-04 00:31 1.20848 104.33102 13383 ft 400 kts 154°
2026-05-04 00:31 1.18312 104.34287 14099 ft 403 kts 153°
2026-05-04 00:31 1.15745 104.35484 14788 ft 408 kts 153°
2026-05-04 00:32 1.13167 104.36687 15491 ft 412 kts 153°
2026-05-04 00:32 1.10544 104.37911 16222 ft 415 kts 153°
2026-05-04 00:32 1.07896 104.39146 16922 ft 419 kts 153°
2026-05-04 00:32 1.05221 104.40395 17588 ft 423 kts 153°
2026-05-04 00:33 1.02559 104.41637 18199 ft 428 kts 153°
2026-05-04 00:33 0.97072 104.44199 19469 ft 435 kts 153°
2026-05-04 00:33 0.94322 104.45481 20059 ft 439 kts 153°
2026-05-04 00:34 0.91538 104.46780 20626 ft 443 kts 154°
2026-05-04 00:34 0.88722 104.48094 21192 ft 447 kts 154°
2026-05-04 00:34 0.85919 104.49401 21725 ft 451 kts 154°
2026-05-04 00:34 0.83019 104.50754 22269 ft 454 kts 154°
2026-05-04 00:35 0.80129 104.52102 22837 ft 457 kts 154°
2026-05-04 00:35 0.77245 104.53447 23337 ft 461 kts 154°
2026-05-04 00:35 0.74324 104.54810 23821 ft 466 kts 154°
2026-05-04 00:35 0.71342 104.56200 24337 ft 469 kts 154°
2026-05-04 00:36 0.68359 104.57591 24856 ft 472 kts 153°
2026-05-04 00:36 0.65277 104.58868 25331 ft 477 kts 160°
2026-05-04 00:36 0.62074 104.59860 25818 ft 481 kts 162°
2026-05-04 00:36 0.58862 104.60812 26307 ft 484 kts 162°
2026-05-04 00:37 0.55604 104.61777 26779 ft 488 kts 162°
2026-05-04 00:37 0.52304 104.62755 27248 ft 491 kts 162°
2026-05-04 00:37 0.49032 104.63725 27737 ft 494 kts 162°
2026-05-04 00:37 0.45713 104.64710 28183 ft 497 kts 162°
2026-05-04 00:38 0.42373 104.65698 28631 ft 501 kts 162°
2026-05-04 00:38 0.38975 104.66703 29126 ft 503 kts 162°
2026-05-04 00:38 0.35608 104.67699 29734 ft 503 kts 162°
2026-05-04 00:38 0.32261 104.68690 30468 ft 500 kts 162°
2026-05-04 00:39 0.28917 104.69679 31214 ft 497 kts 162°
2026-05-04 00:39 0.25606 104.70659 31850 ft 495 kts 162°
2026-05-04 00:39 0.22273 104.71645 32433 ft 495 kts 162°
2026-05-04 00:39 0.18974 104.72622 33042 ft 494 kts 162°
2026-05-04 00:40 0.15668 104.73601 33685 ft 492 kts 162°
2026-05-04 00:40 0.12374 104.74577 34346 ft 490 kts 162°
2026-05-04 00:40 0.09088 104.75553 34863 ft 490 kts 162°
2026-05-04 00:41 0.02527 104.77502 34888 ft 489 kts 162°
2026-05-04 00:41 -0.04062 104.79459 34889 ft 488 kts 162°
2026-05-04 00:42 -0.10634 104.81410 34892 ft 488 kts 162°
2026-05-04 00:42 -0.17137 104.83342 34889 ft 488 kts 162°
2026-05-04 00:43 -0.23695 104.85289 34887 ft 488 kts 162°
2026-05-04 00:43 -0.29995 104.87869 34885 ft 486 kts 148°
2026-05-04 00:44 -0.35654 104.91612 34888 ft 486 kts 144°
2026-05-04 00:44 -0.41292 104.95430 34888 ft 486 kts 144°
2026-05-04 00:45 -0.46881 104.99213 34890 ft 486 kts 145°
2026-05-04 00:45 -0.52421 105.02963 34888 ft 486 kts 145°
2026-05-04 00:46 -0.58038 105.06764 34888 ft 486 kts 144°
2026-05-04 00:46 -0.63696 105.10593 34888 ft 486 kts 144°
2026-05-04 00:47 -0.69308 105.14391 34889 ft 485 kts 144°
2026-05-04 00:47 -0.74923 105.18191 34890 ft 486 kts 144°
2026-05-04 00:48 -0.80535 105.21989 34897 ft 485 kts 144°
2026-05-04 00:48 -0.86113 105.25763 34900 ft 486 kts 144°
2026-05-04 00:49 -0.91630 105.29497 34906 ft 485 kts 144°
2026-05-04 00:49 -0.97230 105.33287 34909 ft 485 kts 144°
2026-05-04 00:50 -1.02821 105.37072 34908 ft 485 kts 144°
2026-05-04 00:50 -1.08307 105.40785 34907 ft 485 kts 144°
2026-05-04 00:51 -1.13952 105.44606 34902 ft 486 kts 144°
2026-05-04 00:51 -1.19583 105.48418 34897 ft 486 kts 144°
2026-05-04 00:52 -1.25205 105.52223 34893 ft 485 kts 144°
2026-05-04 00:52 -1.30827 105.56029 34886 ft 485 kts 144°
2026-05-04 00:53 -1.36429 105.59822 34888 ft 485 kts 144°
2026-05-04 00:53 -1.42048 105.63627 34889 ft 486 kts 144°
2026-05-04 00:54 -1.47683 105.67442 34891 ft 485 kts 144°
2026-05-04 00:54 -1.53298 105.71244 34890 ft 485 kts 144°
2026-05-04 00:55 -1.58960 105.75078 34891 ft 484 kts 144°
2026-05-04 00:55 -1.64570 105.78877 34889 ft 485 kts 144°
2026-05-04 00:56 -1.70158 105.82662 34893 ft 485 kts 144°
2026-05-04 00:56 -1.75806 105.86488 34895 ft 485 kts 144°
2026-05-04 00:57 -1.81396 105.90274 34898 ft 484 kts 144°
2026-05-04 00:57 -1.87004 105.94073 34898 ft 484 kts 144°
2026-05-04 00:58 -1.92615 105.97875 34902 ft 483 kts 144°
2026-05-04 00:58 -1.98222 106.01673 34908 ft 483 kts 144°
2026-05-04 00:59 -2.03798 106.05452 34914 ft 484 kts 144°
2026-05-04 00:59 -2.09403 106.09250 34918 ft 484 kts 144°
2026-05-04 01:00 -2.14994 106.13103 34905 ft 484 kts 140°
2026-05-04 01:00 -2.19661 106.17974 34915 ft 482 kts 127°
2026-05-04 01:01 -2.23771 106.23219 34903 ft 479 kts 127°
2026-05-04 01:01 -2.27899 106.28503 34902 ft 480 kts 127°
2026-05-04 01:02 -2.32032 106.33791 34900 ft 481 kts 127°
2026-05-04 01:02 -2.36166 106.39078 34903 ft 481 kts 127°
2026-05-04 01:03 -2.40294 106.44360 34906 ft 480 kts 127°
2026-05-04 01:03 -2.44428 106.49651 34908 ft 481 kts 127°
2026-05-04 01:04 -2.48552 106.54928 34907 ft 480 kts 127°
2026-05-04 01:04 -2.52711 106.60251 34907 ft 481 kts 127°
2026-05-04 01:05 -2.56841 106.65537 34908 ft 480 kts 127°
2026-05-04 01:05 -2.60944 106.70789 34910 ft 480 kts 127°
2026-05-04 01:06 -2.65085 106.76090 34910 ft 481 kts 127°
2026-05-04 01:06 -2.69186 106.81342 34909 ft 479 kts 127°
2026-05-04 01:07 -2.73317 106.86631 34910 ft 479 kts 127°
2026-05-04 01:07 -2.77416 106.91880 34910 ft 479 kts 127°
2026-05-04 01:08 -2.81549 106.97175 34910 ft 480 kts 127°
2026-05-04 01:08 -2.85675 107.02459 34909 ft 480 kts 127°
2026-05-04 01:09 -2.89799 107.07743 34908 ft 479 kts 127°
2026-05-04 01:09 -2.93898 107.12996 34909 ft 479 kts 127°
2026-05-04 01:10 -2.98011 107.18267 34907 ft 478 kts 127°
2026-05-04 01:10 -3.02114 107.23525 34903 ft 479 kts 127°
2026-05-04 01:11 -3.06227 107.28798 34891 ft 480 kts 127°
2026-05-04 01:11 -3.10370 107.34109 34886 ft 478 kts 127°
2026-05-04 01:12 -3.14475 107.39374 34888 ft 478 kts 127°
2026-05-04 01:12 -3.18561 107.44614 34887 ft 479 kts 127°
2026-05-04 01:13 -3.22666 107.49879 34886 ft 478 kts 127°
2026-05-04 01:13 -3.26771 107.55145 34887 ft 479 kts 127°
2026-05-04 01:14 -3.31102 107.60246 34888 ft 480 kts 136°
2026-05-04 01:14 -3.36556 107.63966 34887 ft 482 kts 153°
2026-05-04 01:15 -3.42729 107.66681 34897 ft 485 kts 155°
2026-05-04 01:15 -3.48989 107.69376 34898 ft 484 kts 155°
2026-05-04 01:16 -3.55149 107.72031 34897 ft 484 kts 155°
2026-05-04 01:16 -3.61374 107.74717 34896 ft 484 kts 155°
2026-05-04 01:17 -3.67579 107.77394 34897 ft 484 kts 155°
2026-05-04 01:17 -3.73771 107.80067 34898 ft 484 kts 155°
2026-05-04 01:18 -3.80024 107.82765 34907 ft 484 kts 155°
2026-05-04 01:18 -3.86227 107.85444 34909 ft 483 kts 155°
2026-05-04 01:19 -3.92402 107.88110 34910 ft 484 kts 155°
2026-05-04 01:19 -3.98614 107.90794 34911 ft 485 kts 155°
2026-05-04 01:20 -4.04841 107.93484 34911 ft 486 kts 155°
2026-05-04 01:20 -4.11079 107.96179 34906 ft 485 kts 155°
2026-05-04 01:21 -4.17269 107.98853 34912 ft 485 kts 154°
2026-05-04 01:21 -4.23505 108.01549 34910 ft 486 kts 155°
2026-05-04 01:22 -4.29768 108.04256 34910 ft 485 kts 155°
2026-05-04 01:22 -4.36018 108.06959 34908 ft 487 kts 155°
2026-05-04 01:23 -4.42254 108.09656 34911 ft 487 kts 154°
2026-05-04 01:23 -4.48501 108.12357 34910 ft 489 kts 155°
2026-05-04 01:24 -4.54783 108.15076 34909 ft 489 kts 154°
2026-05-04 01:24 -4.61024 108.17776 34909 ft 489 kts 155°
2026-05-04 01:25 -4.67287 108.20486 34911 ft 489 kts 154°
2026-05-04 01:25 -4.73598 108.23218 34909 ft 489 kts 155°
2026-05-04 01:26 -4.79824 108.25913 34911 ft 489 kts 154°
2026-05-04 01:26 -4.86135 108.28646 34905 ft 491 kts 154°
2026-05-04 01:27 -4.92436 108.31375 34893 ft 492 kts 154°
2026-05-04 01:27 -4.98736 108.34105 34892 ft 492 kts 155°
2026-05-04 01:28 -5.05023 108.36829 34889 ft 491 kts 155°
2026-05-04 01:28 -5.11334 108.39564 34889 ft 492 kts 155°
2026-05-04 01:29 -5.17652 108.42303 34888 ft 492 kts 154°
2026-05-04 01:29 -5.23936 108.45027 34887 ft 493 kts 155°
2026-05-04 01:30 -5.30291 108.47783 34885 ft 493 kts 155°
2026-05-04 01:30 -5.36605 108.50522 34884 ft 493 kts 155°
2026-05-04 01:31 -5.42931 108.53267 34886 ft 493 kts 155°
2026-05-04 01:31 -5.49268 108.56016 34887 ft 494 kts 155°
2026-05-04 01:32 -5.55587 108.58760 34886 ft 494 kts 155°
2026-05-04 01:32 -5.61954 108.61524 34887 ft 496 kts 155°
2026-05-04 01:33 -5.68314 108.64286 34887 ft 495 kts 155°
2026-05-04 01:33 -5.74620 108.67025 34893 ft 495 kts 155°
2026-05-04 01:34 -5.81010 108.69801 34897 ft 495 kts 155°
2026-05-04 01:34 -5.87346 108.72555 34902 ft 496 kts 155°
2026-05-04 01:35 -5.93705 108.75320 34910 ft 497 kts 155°
2026-05-04 01:35 -6.00102 108.78101 34911 ft 497 kts 155°
2026-05-04 01:36 -6.06463 108.80868 34912 ft 496 kts 155°
2026-05-04 01:36 -6.12813 108.83630 34910 ft 496 kts 155°
2026-05-04 01:37 -6.19165 108.86395 34910 ft 496 kts 155°
2026-05-04 01:37 -6.25561 108.89178 34910 ft 496 kts 155°
2026-05-04 01:38 -6.31899 108.91938 34910 ft 495 kts 155°
2026-05-04 01:38 -6.38249 108.94703 34911 ft 496 kts 155°
2026-05-04 01:39 -6.44618 108.97478 34910 ft 495 kts 155°
2026-05-04 01:39 -6.50970 109.00246 34909 ft 496 kts 155°
2026-05-04 01:40 -6.57336 109.03020 34910 ft 496 kts 155°
2026-05-04 01:40 -6.63722 109.05804 34909 ft 496 kts 155°
2026-05-04 01:41 -6.70054 109.08566 34911 ft 496 kts 155°
2026-05-04 01:41 -6.76401 109.11334 34913 ft 495 kts 155°
2026-05-04 01:42 -6.82780 109.14117 34916 ft 494 kts 155°
2026-05-04 01:42 -6.89109 109.16880 34924 ft 494 kts 155°
2026-05-04 01:43 -6.95467 109.19656 34927 ft 495 kts 155°
2026-05-04 01:43 -7.01811 109.22427 34926 ft 494 kts 155°
2026-05-04 01:44 -7.08120 109.25183 34966 ft 494 kts 155°
2026-05-04 01:44 -7.14475 109.27960 35003 ft 494 kts 155°
2026-05-04 01:45 -7.20782 109.30718 35038 ft 493 kts 155°
2026-05-04 01:45 -7.30324 109.34890 35051 ft 495 kts 155°
2026-05-04 01:46 -7.36661 109.37663 35019 ft 495 kts 155°
2026-05-04 01:46 -7.42998 109.40435 34989 ft 494 kts 155°
2026-05-04 01:47 -7.49324 109.43205 34959 ft 494 kts 155°
2026-05-04 01:47 -7.55648 109.45973 34946 ft 494 kts 155°
2026-05-04 01:48 -7.61965 109.48740 34942 ft 494 kts 156°
2026-05-04 01:48 -7.68269 109.51503 34938 ft 495 kts 156°
2026-05-04 01:49 -7.74629 109.54291 34929 ft 495 kts 155°
2026-05-04 01:49 -7.80941 109.57058 34930 ft 495 kts 156°
2026-05-04 01:50 -7.87269 109.59834 34930 ft 495 kts 156°
2026-05-04 01:50 -7.93622 109.62620 34929 ft 494 kts 156°
2026-05-04 01:51 -7.99967 109.65405 34930 ft 495 kts 155°
2026-05-04 01:51 -8.06270 109.68173 34933 ft 495 kts 155°
2026-05-04 01:52 -8.12626 109.70964 34931 ft 495 kts 155°
2026-05-04 01:52 -8.18977 109.73754 34929 ft 495 kts 156°
2026-05-04 01:53 -8.25292 109.76530 34932 ft 495 kts 156°
2026-05-04 01:53 -8.31663 109.79330 34935 ft 495 kts 156°
2026-05-04 01:54 -8.37984 109.82111 34930 ft 495 kts 156°
2026-05-04 01:54 -8.44344 109.84909 34931 ft 494 kts 156°
2026-05-04 01:55 -8.50682 109.87698 34935 ft 495 kts 156°
2026-05-04 01:55 -8.57021 109.90489 34928 ft 495 kts 156°
2026-05-04 01:56 -8.63328 109.93268 34932 ft 496 kts 156°
2026-05-04 01:56 -8.69686 109.96069 34935 ft 494 kts 156°
2026-05-04 01:57 -8.75983 109.98844 34929 ft 494 kts 156°
2026-05-04 01:57 -8.82292 110.01626 34931 ft 494 kts 156°
2026-05-04 01:58 -8.88624 110.04419 34930 ft 493 kts 156°
2026-05-04 01:58 -8.94912 110.07194 34933 ft 494 kts 156°
2026-05-04 01:59 -9.01265 110.09998 34933 ft 494 kts 156°
2026-05-04 01:59 -9.07553 110.12775 34936 ft 494 kts 156°
2026-05-04 02:00 -9.13901 110.15579 34935 ft 494 kts 156°
2026-05-04 02:00 -9.20236 110.18379 34935 ft 495 kts 156°
2026-05-04 02:01 -9.26537 110.21165 34936 ft 495 kts 156°
2026-05-04 02:01 -9.32891 110.23975 34939 ft 496 kts 156°
2026-05-04 02:02 -9.39257 110.26792 34940 ft 496 kts 156°
2026-05-04 02:02 -9.45577 110.29589 34940 ft 497 kts 156°
2026-05-04 02:03 -9.51940 110.32407 34942 ft 496 kts 156°
2026-05-04 02:03 -9.58292 110.35221 34941 ft 496 kts 157°
2026-05-04 02:04 -9.64640 110.38034 34945 ft 496 kts 157°
2026-05-04 02:04 -9.70986 110.40848 34944 ft 495 kts 157°
2026-05-04 02:05 -9.77245 110.43624 34944 ft 494 kts 157°
2026-05-04 02:05 -9.83565 110.46428 34941 ft 495 kts 157°
2026-05-04 02:06 -9.89898 110.49239 34939 ft 495 kts 157°
2026-05-04 02:06 -9.96229 110.52044 34936 ft 496 kts 157°
2026-05-04 02:07 -10.02603 110.54857 34935 ft 496 kts 157°
2026-05-04 02:07 -10.08941 110.57656 34932 ft 495 kts 157°
2026-05-04 02:08 -10.15292 110.60463 34935 ft 496 kts 157°
2026-05-04 02:08 -10.21603 110.63254 34935 ft 494 kts 157°
2026-05-04 02:09 -10.27937 110.66055 34935 ft 496 kts 157°
2026-05-04 02:09 -10.34293 110.68868 34935 ft 495 kts 157°
2026-05-04 02:10 -10.40644 110.71680 34936 ft 496 kts 157°
2026-05-04 02:10 -10.46938 110.74468 34940 ft 496 kts 157°
2026-05-04 02:11 -10.53309 110.77291 34941 ft 496 kts 157°
2026-05-04 02:11 -10.59681 110.80115 34944 ft 496 kts 157°
2026-05-04 02:12 -10.65993 110.82916 34947 ft 495 kts 157°
2026-05-04 02:12 -10.72328 110.85726 34949 ft 495 kts 157°
2026-05-04 02:13 -10.78701 110.88556 34958 ft 496 kts 158°
2026-05-04 02:13 -10.85022 110.91363 34953 ft 496 kts 158°
2026-05-04 02:14 -10.91368 110.94183 34950 ft 497 kts 158°
2026-05-04 02:14 -10.97741 110.97016 34948 ft 496 kts 158°
2026-05-04 02:15 -11.04043 110.99819 34950 ft 496 kts 158°
2026-05-04 02:15 -11.10393 111.02645 34952 ft 497 kts 158°
2026-05-04 02:16 -11.16756 111.05478 34953 ft 496 kts 158°
2026-05-04 02:16 -11.23136 111.08320 34955 ft 497 kts 158°
2026-05-04 02:17 -11.29476 111.11145 34955 ft 496 kts 158°
2026-05-04 02:17 -11.35788 111.13959 34959 ft 497 kts 158°
2026-05-04 02:18 -11.42171 111.16806 34958 ft 496 kts 158°
2026-05-04 02:18 -11.48512 111.19636 34963 ft 496 kts 158°
2026-05-04 02:19 -11.54896 111.22487 34964 ft 497 kts 158°
2026-05-04 02:19 -11.61248 111.25324 34964 ft 496 kts 158°
2026-05-04 02:20 -11.67562 111.28146 34965 ft 497 kts 158°
2026-05-04 02:20 -11.73933 111.30995 34966 ft 498 kts 158°
2026-05-04 02:21 -11.80323 111.33854 34965 ft 498 kts 158°
2026-05-04 02:21 -11.86680 111.36700 34959 ft 498 kts 158°
2026-05-04 02:22 -11.93029 111.39543 34953 ft 497 kts 158°
2026-05-04 02:22 -11.99348 111.42526 34950 ft 500 kts 151°
2026-05-04 02:23 -12.04978 111.46716 34955 ft 501 kts 143°
2026-05-04 02:23 -12.10438 111.51171 34953 ft 501 kts 142°
2026-05-04 02:24 -12.15890 111.55622 34956 ft 502 kts 143°
2026-05-04 02:24 -12.21348 111.60080 34958 ft 501 kts 143°
2026-05-04 02:25 -12.26837 111.64565 34961 ft 501 kts 143°
2026-05-04 02:25 -12.32307 111.69036 34955 ft 502 kts 142°
2026-05-04 02:26 -12.37767 111.73501 34958 ft 502 kts 143°
2026-05-04 02:26 -12.43232 111.77973 34961 ft 502 kts 143°
2026-05-04 02:27 -12.48699 111.82449 34958 ft 502 kts 143°
2026-05-04 02:27 -12.54162 111.86923 34962 ft 502 kts 143°
2026-05-04 02:28 -12.59640 111.91413 34962 ft 502 kts 143°
2026-05-04 02:28 -12.65099 111.95890 34964 ft 502 kts 143°
2026-05-04 02:29 -12.70571 112.00380 34964 ft 502 kts 143°
2026-05-04 02:29 -12.76045 112.04874 34965 ft 502 kts 143°
2026-05-04 02:30 -12.81491 112.09347 34967 ft 503 kts 143°
2026-05-04 02:30 -12.86977 112.13856 34968 ft 502 kts 143°
2026-05-04 02:31 -12.92449 112.18356 34970 ft 504 kts 143°
2026-05-04 02:31 -12.97889 112.22833 34974 ft 503 kts 143°
2026-05-04 02:32 -13.03391 112.27363 34971 ft 503 kts 143°
2026-05-04 02:32 -13.08844 112.31856 34966 ft 502 kts 143°
2026-05-04 02:33 -13.14312 112.36362 34967 ft 502 kts 143°
2026-05-04 02:33 -13.19750 112.40848 34977 ft 501 kts 143°
2026-05-04 02:34 -13.25189 112.45337 34980 ft 501 kts 143°
2026-05-04 02:34 -13.30635 112.49834 34981 ft 501 kts 144°
2026-05-04 02:35 -13.36105 112.54353 34985 ft 501 kts 144°
2026-05-04 02:35 -13.41542 112.58849 34985 ft 501 kts 144°
2026-05-04 02:36 -13.46972 112.63340 34984 ft 501 kts 144°
2026-05-04 02:36 -13.52412 112.67844 34980 ft 501 kts 143°
2026-05-04 02:37 -13.57845 112.72343 34981 ft 500 kts 144°
2026-05-04 02:37 -13.63292 112.76857 34982 ft 500 kts 144°
2026-05-04 02:38 -13.68708 112.81349 34984 ft 499 kts 144°
2026-05-04 02:38 -13.74148 112.85863 34986 ft 499 kts 144°
2026-05-04 02:39 -13.79543 112.90342 34987 ft 499 kts 144°
2026-05-04 02:39 -13.84940 112.94826 34988 ft 499 kts 144°
2026-05-04 02:40 -13.90378 112.99346 34990 ft 499 kts 144°
2026-05-04 02:40 -13.95776 113.03836 34992 ft 498 kts 144°
2026-05-04 02:41 -14.01145 113.08305 34991 ft 499 kts 144°
2026-05-04 02:41 -14.06544 113.12801 34992 ft 499 kts 144°
2026-05-04 02:42 -14.11973 113.17326 34992 ft 499 kts 144°
2026-05-04 02:42 -14.17350 113.21810 34985 ft 498 kts 144°
2026-05-04 02:43 -14.22789 113.26348 34985 ft 498 kts 144°
2026-05-04 02:43 -14.28157 113.30830 34986 ft 498 kts 144°
2026-05-04 02:44 -14.33558 113.35342 34986 ft 499 kts 144°
2026-05-04 02:44 -14.38952 113.39852 34983 ft 499 kts 144°
2026-05-04 02:45 -14.44376 113.44389 34987 ft 499 kts 144°
2026-05-04 02:45 -14.49760 113.48897 34986 ft 499 kts 145°
2026-05-04 02:46 -14.55159 113.53419 34987 ft 499 kts 145°
2026-05-04 02:46 -14.60578 113.57961 34991 ft 501 kts 145°
2026-05-04 02:47 -14.65975 113.62488 34991 ft 500 kts 145°
2026-05-04 02:47 -14.71398 113.67039 34980 ft 499 kts 144°
2026-05-04 02:48 -14.76776 113.71556 34984 ft 500 kts 144°
2026-05-04 02:48 -14.82186 113.76102 34986 ft 499 kts 145°
2026-05-04 02:49 -14.87579 113.80637 34988 ft 500 kts 145°
2026-05-04 02:49 -14.92998 113.85197 34988 ft 501 kts 145°
2026-05-04 02:50 -14.98409 113.89754 34989 ft 501 kts 145°
2026-05-04 02:50 -15.03811 113.94305 34988 ft 501 kts 145°
2026-05-04 02:51 -15.09225 113.98871 34989 ft 501 kts 145°
2026-05-04 02:51 -15.14631 114.03432 34994 ft 502 kts 145°
2026-05-04 02:52 -15.20070 114.08025 34995 ft 500 kts 145°
2026-05-04 02:52 -15.25456 114.12576 34996 ft 501 kts 145°
2026-05-04 02:53 -15.30831 114.17120 34996 ft 501 kts 145°
2026-05-04 02:53 -15.36246 114.21702 34996 ft 501 kts 145°
2026-05-04 02:54 -15.41586 114.26223 34996 ft 501 kts 145°
2026-05-04 02:54 -15.47006 114.30815 34996 ft 501 kts 145°
2026-05-04 02:55 -15.55081 114.37663 34997 ft 500 kts 145°
2026-05-04 02:56 -15.60497 114.42259 34997 ft 501 kts 145°
2026-05-04 02:56 -15.65867 114.46820 34999 ft 501 kts 146°
2026-05-04 02:57 -15.71265 114.51408 34999 ft 501 kts 146°
2026-05-04 02:57 -15.76697 114.56028 35000 ft 503 kts 146°
2026-05-04 02:58 -15.82074 114.60605 34998 ft 503 kts 146°
2026-05-04 02:58 -15.87480 114.65210 34996 ft 501 kts 145°
2026-05-04 02:59 -15.92878 114.69810 34986 ft 500 kts 146°
2026-05-04 02:59 -15.98273 114.74412 34997 ft 502 kts 146°
2026-05-04 03:00 -16.03685 114.79031 35009 ft 501 kts 146°
2026-05-04 03:00 -16.09073 114.83634 35007 ft 502 kts 146°
2026-05-04 03:01 -16.14497 114.88271 35018 ft 503 kts 145°
2026-05-04 03:01 -16.19882 114.92878 35018 ft 501 kts 146°
2026-05-04 03:02 -16.25307 114.97521 35019 ft 502 kts 146°
2026-05-04 03:02 -16.30697 115.02140 35019 ft 501 kts 146°
2026-05-04 03:03 -16.36095 115.06767 35021 ft 501 kts 146°
2026-05-04 03:03 -16.41488 115.11395 35021 ft 502 kts 146°
2026-05-04 03:04 -16.46861 115.16011 35023 ft 501 kts 146°
2026-05-04 03:04 -16.52263 115.20657 35027 ft 503 kts 146°
2026-05-04 03:05 -16.57650 115.25298 35028 ft 500 kts 146°
2026-05-04 03:05 -16.63053 115.29954 35030 ft 503 kts 146°
2026-05-04 03:06 -16.68451 115.34609 35030 ft 502 kts 146°
2026-05-04 03:06 -16.73806 115.39230 35033 ft 501 kts 146°
2026-05-04 03:07 -16.79193 115.43883 35033 ft 501 kts 146°
2026-05-04 03:07 -16.84582 115.48540 35025 ft 504 kts 146°
2026-05-04 03:08 -16.89982 115.53211 35018 ft 503 kts 146°
2026-05-04 03:08 -16.95410 115.57910 35018 ft 503 kts 146°
2026-05-04 03:09 -17.00789 115.62570 35019 ft 504 kts 146°
2026-05-04 03:09 -17.06198 115.67260 35005 ft 503 kts 146°
2026-05-04 03:10 -17.11570 115.71922 35014 ft 503 kts 146°
2026-05-04 03:10 -17.16975 115.76615 35013 ft 503 kts 146°
2026-05-04 03:11 -17.22360 115.81295 35015 ft 501 kts 146°
2026-05-04 03:11 -17.27716 115.85952 35015 ft 504 kts 146°
2026-05-04 03:12 -17.33145 115.90678 35020 ft 504 kts 146°
2026-05-04 03:12 -17.38532 115.95371 35020 ft 503 kts 146°
2026-05-04 03:13 -17.43926 116.00073 35022 ft 504 kts 146°
2026-05-04 03:13 -17.49319 116.04780 35024 ft 501 kts 147°
2026-05-04 03:14 -17.54690 116.09469 35023 ft 503 kts 147°
2026-05-04 03:14 -17.60037 116.14141 35025 ft 502 kts 147°
2026-05-04 03:15 -17.65405 116.18836 35027 ft 501 kts 147°
2026-05-04 03:15 -17.70756 116.23518 35029 ft 503 kts 147°
2026-05-04 03:16 -17.76125 116.28223 35030 ft 501 kts 147°
2026-05-04 03:16 -17.81498 116.32932 35033 ft 502 kts 147°
2026-05-04 03:17 -17.86864 116.37640 35032 ft 502 kts 147°
2026-05-04 03:17 -17.92199 116.42326 35035 ft 501 kts 147°
2026-05-04 03:18 -17.97576 116.47051 35035 ft 500 kts 147°
2026-05-04 03:18 -18.02928 116.51758 35037 ft 500 kts 147°
2026-05-04 03:19 -18.08257 116.56448 35039 ft 503 kts 147°
2026-05-04 03:19 -18.13630 116.61182 35051 ft 501 kts 147°
2026-05-04 03:20 -18.18970 116.65886 35041 ft 502 kts 147°
2026-05-04 03:20 -18.24361 116.70639 35036 ft 503 kts 147°
2026-05-04 03:21 -18.29723 116.75372 35036 ft 502 kts 147°
2026-05-04 03:21 -18.35091 116.80112 35037 ft 503 kts 147°
2026-05-04 03:22 -18.40434 116.84835 35041 ft 504 kts 147°
2026-05-04 03:22 -18.45807 116.89590 35043 ft 503 kts 147°
2026-05-04 03:23 -18.51168 116.94338 35040 ft 501 kts 147°
2026-05-04 03:23 -18.56510 116.99071 35043 ft 503 kts 147°
2026-05-04 03:24 -18.61857 117.03815 35043 ft 501 kts 148°
2026-05-04 03:24 -18.67200 117.08558 35047 ft 502 kts 148°
2026-05-04 03:25 -18.72537 117.13299 35048 ft 502 kts 148°
2026-05-04 03:25 -18.77900 117.18067 35049 ft 504 kts 148°
2026-05-04 03:26 -18.83285 117.22861 35052 ft 502 kts 148°
2026-05-04 03:26 -18.88596 117.27592 35056 ft 505 kts 148°
2026-05-04 03:27 -18.94000 117.32410 35056 ft 504 kts 148°
2026-05-04 03:27 -18.99344 117.37179 35058 ft 504 kts 148°
2026-05-04 03:28 -19.04705 117.41966 35058 ft 503 kts 148°
2026-05-04 03:28 -19.09995 117.46696 35057 ft 501 kts 148°
2026-05-04 03:29 -19.15393 117.51524 35068 ft 504 kts 148°
2026-05-04 03:29 -19.20742 117.56314 35073 ft 505 kts 148°
2026-05-04 03:30 -19.26103 117.61121 35073 ft 501 kts 148°
2026-05-04 03:30 -19.31447 117.65913 35064 ft 505 kts 148°
2026-05-04 03:31 -19.36811 117.70729 35055 ft 505 kts 148°
2026-05-04 03:31 -19.42167 117.75544 35058 ft 503 kts 148°
2026-05-04 03:32 -19.47556 117.80389 35062 ft 507 kts 148°
2026-05-04 03:32 -19.52903 117.85206 35058 ft 501 kts 148°
2026-05-04 03:33 -19.58251 117.90022 35063 ft 506 kts 148°
2026-05-04 03:33 -19.63577 117.94828 35064 ft 502 kts 148°
2026-05-04 03:34 -19.68946 117.99673 35067 ft 505 kts 148°
2026-05-04 03:34 -19.74292 118.04505 35069 ft 502 kts 148°
2026-05-04 03:35 -19.79669 118.09365 35065 ft 505 kts 148°
2026-05-04 03:35 -19.85026 118.14217 35070 ft 503 kts 148°
2026-05-04 03:36 -19.90409 118.19091 35066 ft 507 kts 149°
2026-05-04 03:36 -19.95776 118.23962 35067 ft 503 kts 149°
2026-05-04 03:37 -20.01149 118.28838 35067 ft 504 kts 149°
2026-05-04 03:37 -20.06479 118.33681 35068 ft 503 kts 149°
2026-05-04 03:38 -20.11839 118.38554 35083 ft 505 kts 149°
2026-05-04 03:38 -20.17232 118.43464 35080 ft 503 kts 149°
2026-05-04 03:39 -20.22562 118.48321 35082 ft 505 kts 149°
2026-05-04 03:39 -20.27958 118.53241 35084 ft 504 kts 149°
2026-05-04 03:40 -20.33303 118.58120 35089 ft 504 kts 149°
2026-05-04 03:40 -20.38578 118.63092 35100 ft 508 kts 145°
2026-05-04 03:41 -20.43537 118.68516 35077 ft 512 kts 143°
2026-05-04 03:41 -20.48527 118.74017 35069 ft 512 kts 143°
2026-05-04 03:42 -20.53480 118.79484 35070 ft 511 kts 143°
2026-05-04 03:42 -20.58457 118.84975 35072 ft 511 kts 144°
2026-05-04 03:43 -20.63387 118.90423 35079 ft 513 kts 144°
2026-05-04 03:43 -20.68409 118.95976 35080 ft 511 kts 144°
2026-05-04 03:44 -20.73328 119.01422 35085 ft 510 kts 144°
2026-05-04 03:44 -20.78334 119.06965 35088 ft 513 kts 144°
2026-05-04 03:45 -20.83266 119.12439 35091 ft 509 kts 144°
2026-05-04 03:45 -20.88237 119.17955 35094 ft 511 kts 144°
2026-05-04 03:46 -20.93236 119.23509 35093 ft 511 kts 144°
2026-05-04 03:46 -20.98150 119.28979 35098 ft 508 kts 144°
2026-05-04 03:47 -21.03120 119.34509 35111 ft 511 kts 144°
2026-05-04 03:47 -21.08047 119.40002 35119 ft 511 kts 144°
2026-05-04 03:48 -21.12880 119.45396 35133 ft 509 kts 144°
2026-05-04 03:48 -21.17784 119.50875 35142 ft 508 kts 144°
2026-05-04 03:49 -21.22716 119.56387 35142 ft 511 kts 144°
2026-05-04 03:49 -21.27658 119.61921 35148 ft 506 kts 144°
2026-05-04 03:50 -21.32542 119.67391 35131 ft 508 kts 144°
2026-05-04 03:50 -21.37449 119.72894 35127 ft 510 kts 144°
2026-05-04 03:51 -21.42379 119.78431 35131 ft 506 kts 144°
2026-05-04 03:51 -21.47262 119.83919 35142 ft 505 kts 144°
2026-05-04 03:52 -21.52165 119.89431 35149 ft 510 kts 144°